TimeEDT,TemperatureF,Dew PointF,Humidity,Sea Level PressureIn,VisibilityMPH,Wind Direction,Wind SpeedMPH,Gust SpeedMPH,PrecipitationIn,Events,Conditions,WindDirDegrees,DateUTC
12:13 AM,68.4,59.0,72,29.85,10.0,West,4.6,-,N/A,,Scattered Clouds,260,2013-06-17 04:13:00
12:32 AM,67.3,58.6,74,29.86,10.0,WSW,4.6,-,N/A,,Clear,240,2013-06-17 04:32:00
12:52 AM,65.8,58.5,77,29.86,10.0,SW,4.6,-,N/A,,Clear,220,2013-06-17 04:52:00
1:11 AM,65.5,58.5,78,29.86,10.0,WSW,5.8,-,N/A,,Clear,240,2013-06-17 05:11:00
1:32 AM,66.2,58.6,77,29.86,10.0,WSW,5.8,-,N/A,,Scattered Clouds,250,2013-06-17 05:32:00
1:52 AM,66.2,58.1,75,29.86,10.0,West,4.6,-,N/A,,Scattered Clouds,270,2013-06-17 05:52:00
2:11 AM,64.6,57.6,78,29.87,10.0,West,3.5,-,N/A,,Clear,280,2013-06-17 06:11:00
2:32 AM,63.5,57.6,81,29.86,10.0,Calm,Calm,-,N/A,,Mostly Cloudy,0,2013-06-17 06:32:00
2:52 AM,63.3,57.6,81,29.87,10.0,WSW,4.6,-,N/A,,Scattered Clouds,250,2013-06-17 06:52:00
3:11 AM,63.5,57.4,80,29.88,10.0,West,3.5,-,N/A,,Clear,260,2013-06-17 07:11:00
3:32 AM,64.4,57.2,77,29.88,10.0,West,4.6,-,N/A,,Clear,260,2013-06-17 07:32:00
3:52 AM,64.8,56.3,74,29.89,10.0,West,4.6,-,N/A,,Scattered Clouds,280,2013-06-17 07:52:00
4:11 AM,64.4,55.8,73,29.87,10.0,North,3.5,-,N/A,Rain,Light Rain,350,2013-06-17 08:11:00
4:32 AM,63.0,57.0,81,29.85,10.0,SW,5.8,-,N/A,,Mostly Cloudy,230,2013-06-17 08:32:00
4:52 AM,59.0,57.4,94,29.84,10.0,Calm,Calm,-,N/A,,Clear,0,2013-06-17 08:52:00
5:11 AM,58.1,57.2,97,29.86,10.0,NNW,3.5,-,N/A,,Scattered Clouds,330,2013-06-17 09:11:00
5:32 AM,58.1,57.4,97,29.87,10.0,Calm,Calm,-,N/A,,Overcast,0,2013-06-17 09:32:00
5:52 AM,57.2,56.5,97,29.87,10.0,Calm,Calm,-,N/A,,Mostly Cloudy,0,2013-06-17 09:52:00
6:12 AM,57.6,57.2,99,29.88,10.0,Calm,Calm,-,N/A,,Overcast,0,2013-06-17 10:12:00
6:32 AM,58.3,58.1,99,29.90,10.0,NW,3.5,-,N/A,,Overcast,310,2013-06-17 10:32:00
6:52 AM,60.4,57.9,91,29.90,10.0,Calm,Calm,-,N/A,,Scattered Clouds,0,2013-06-17 10:52:00
7:12 AM,61.3,57.7,88,29.91,10.0,NW,3.5,-,N/A,,Scattered Clouds,320,2013-06-17 11:12:00
7:32 AM,60.4,57.6,90,29.91,10.0,Calm,Calm,-,N/A,,Scattered Clouds,0,2013-06-17 11:32:00
7:52 AM,63.0,58.1,84,29.92,10.0,Calm,Calm,-,N/A,,Scattered Clouds,0,2013-06-17 11:52:00
8:11 AM,61.3,58.5,90,29.92,10.0,North,-9999.0,-,N/A,,Clear,0,2013-06-17 12:11:00
8:33 AM,65.1,56.8,75,29.90,10.0,Calm,Calm,-,N/A,,Clear,0,2013-06-17 12:33:00
8:52 AM,65.7,56.5,72,29.91,10.0,Calm,Calm,-,N/A,,Clear,0,2013-06-17 12:52:00
9:12 AM,66.6,56.5,70,29.91,10.0,Calm,Calm,-,N/A,,Clear,0,2013-06-17 13:12:00
9:32 AM,66.2,57.7,74,29.91,10.0,Calm,Calm,-,N/A,,Clear,0,2013-06-17 13:32:00
9:52 AM,66.2,57.9,75,29.92,10.0,Calm,Calm,-,N/A,,Mostly Cloudy,0,2013-06-17 13:52:00
10:12 AM,65.3,57.7,76,29.91,10.0,SE,4.6,-,N/A,Rain,Rain,130,2013-06-17 14:12:00
10:32 AM,64.4,61.3,90,29.93,10.0,North,4.6,-,0.01,Rain,Light Rain,10,2013-06-17 14:32:00
10:52 AM,65.5,61.7,88,29.93,10.0,NNE,4.6,-,0.02,,Mostly Cloudy,20,2013-06-17 14:52:00
11:12 AM,66.6,59.4,78,29.93,10.0,Calm,Calm,-,N/A,,Overcast,0,2013-06-17 15:12:00
11:32 AM,67.6,58.5,72,29.93,10.0,Calm,Calm,-,N/A,,Mostly Cloudy,0,2013-06-17 15:32:00
11:52 AM,70.7,59.9,69,29.93,10.0,Calm,Calm,-,N/A,,Scattered Clouds,0,2013-06-17 15:52:00
12:12 PM,70.9,59.2,66,29.92,10.0,Calm,Calm,-,N/A,,Scattered Clouds,0,2013-06-17 16:12:00
12:32 PM,72.5,59.4,63,29.92,10.0,Calm,Calm,-,N/A,,Clear,0,2013-06-17 16:32:00
12:52 PM,73.6,59.9,62,29.91,10.0,Calm,Calm,-,N/A,,Clear,0,2013-06-17 16:52:00
1:12 PM,73.8,59.4,61,29.91,10.0,NNW,4.6,-,N/A,,Scattered Clouds,340,2013-06-17 17:12:00
1:32 PM,74.8,60.1,60,29.91,10.0,North,3.5,-,N/A,,Scattered Clouds,10,2013-06-17 17:32:00
1:52 PM,74.8,59.7,59,29.90,10.0,Calm,Calm,-,N/A,,Scattered Clouds,0,2013-06-17 17:52:00
2:12 PM,73.2,60.1,63,29.92,10.0,North,4.6,-,N/A,,Mostly Cloudy,360,2013-06-17 18:12:00
2:32 PM,68.4,61.5,79,29.94,5.0,NNW,12.7,20.7,0.01,Rain,Heavy Rain,330,2013-06-17 18:32:00
2:52 PM,65.5,59.4,81,29.89,10.0,Calm,Calm,-,0.03,Rain,Light Rain,0,2013-06-17 18:52:00
3:13 PM,67.1,61.9,83,29.90,10.0,North,4.6,-,0.02,,Overcast,350,2013-06-17 19:13:00
3:32 PM,68.0,62.2,82,29.90,10.0,Calm,Calm,-,0.03,,Mostly Cloudy,0,2013-06-17 19:32:00
3:52 PM,71.8,62.6,73,29.89,10.0,NE,3.5,-,0.05,,Mostly Cloudy,40,2013-06-17 19:52:00
4:13 PM,73.6,61.5,66,29.89,10.0,Calm,Calm,-,0.01,,Scattered Clouds,0,2013-06-17 20:13:00
4:32 PM,75.4,61.2,61,29.89,10.0,NE,6.9,-,0.01,,Scattered Clouds,50,2013-06-17 20:32:00
4:52 PM,73.2,64.2,73,29.88,10.0,ENE,16.1,-,0.01,,Scattered Clouds,70,2013-06-17 20:52:00
5:12 PM,67.8,62.2,82,29.88,10.0,ENE,10.4,19.6,N/A,,Clear,70,2013-06-17 21:12:00
5:32 PM,64.9,60.3,85,29.88,10.0,ENE,10.4,-,N/A,Rain,Rain,70,2013-06-17 21:32:00
5:50 PM,63.5,61.2,92,29.89,5.0,NE,9.2,16.1,0.01,Rain,Rain,40,2013-06-17 21:50:00
6:14 PM,64.4,60.8,88,29.89,10.0,NE,13.8,18.4,N/A,,Scattered Clouds,50,2013-06-17 22:14:00
6:34 PM,62.6,60.8,94,29.88,10.0,NE,6.9,17.3,N/A,,Clear,50,2013-06-17 22:34:00
6:56 PM,62.6,59.0,88,29.90,10.0,ENE,10.4,-,N/A,,Mostly Cloudy,70,2013-06-17 22:56:00
7:14 PM,60.8,59.0,94,29.90,10.0,ENE,11.5,-,N/A,,Mostly Cloudy,70,2013-06-17 23:14:00
7:15 PM,61.3,58.8,91,29.90,10.0,NE,9.2,-,N/A,,Overcast,50,2013-06-17 23:15:00
7:32 PM,61.3,58.6,91,29.91,10.0,NE,9.2,16.1,0.01,,Mostly Cloudy,40,2013-06-17 23:32:00
7:53 PM,61.5,57.4,86,29.92,10.0,ENE,15.0,21.9,0.01,,Mostly Cloudy,60,2013-06-17 23:53:00
8:12 PM,61.3,56.1,83,29.92,10.0,NE,8.1,21.9,N/A,,Mostly Cloudy,40,2013-06-18 00:12:00
8:31 PM,60.4,55.6,84,29.93,10.0,NE,8.1,-,N/A,,Mostly Cloudy,50,2013-06-18 00:31:00
8:52 PM,59.5,55.0,85,29.94,10.0,NE,9.2,16.1,N/A,,Mostly Cloudy,50,2013-06-18 00:52:00
9:12 PM,59.0,54.0,83,29.94,10.0,ENE,6.9,-,N/A,,Scattered Clouds,60,2013-06-18 01:12:00
9:32 PM,58.3,54.0,86,29.95,10.0,ENE,4.6,-,N/A,,Mostly Cloudy,60,2013-06-18 01:32:00
9:52 PM,58.1,53.8,86,29.96,10.0,ENE,9.2,-,N/A,,Scattered Clouds,70,2013-06-18 01:52:00
10:12 PM,57.7,53.8,87,29.95,10.0,NE,9.2,-,N/A,,Mostly Cloudy,50,2013-06-18 02:12:00
10:33 PM,57.7,54.0,87,29.97,10.0,NE,8.1,-,0.01,,Overcast,50,2013-06-18 02:33:00
10:52 PM,57.6,53.6,87,29.98,10.0,NE,6.9,-,0.01,,Mostly Cloudy,50,2013-06-18 02:52:00
11:12 PM,57.0,53.4,88,29.97,10.0,NE,5.8,-,N/A,,Scattered Clouds,40,2013-06-18 03:12:00
11:33 PM,56.7,53.6,89,29.97,10.0,NE,3.5,-,N/A,,Clear,40,2013-06-18 03:33:00
11:52 PM,56.1,53.6,91,29.99,10.0,North,3.5,-,N/A,,Clear,360,2013-06-18 03:52:00